{"data":{"norad_id":60366,"intl_designator":"2024-138M","name":"STARLINK-32230","alt_names":[],"object_type":"PAYLOAD","status":"ACTIVE","operator":null,"country":"US","launch_date":"2024-08-04","launch_site_code":"AFWTR","launch_vehicle":null,"mission":null,"orbit_class":"UNKNOWN","rcs_meters":null,"size_class":null,"mass_kg":null,"dimensions":null,"purposes":["comms"],"wikipedia_slug":null,"has_3d_model":false,"image_url":null,"decayed_at":null,"tle_current":{"epoch":"2026-09-21T20:03:54.306144Z","epoch_age_seconds":70069,"freshness":"FRESH","line1":"1 60366U 24138M   26264.83604521  .00000341  00000+0  21230-4 0  9997","line2":"2 60366  53.1596 117.4501 0001276  90.5580 269.5568 15.34388614120674","mean_motion":15.34388614,"eccentricity":0.0001276,"inclination_deg":53.1596,"raan_deg":117.4501,"arg_perigee_deg":90.558,"mean_anomaly_deg":269.5568,"bstar":2.123e-5,"rev_number":12067,"period_min":93.848454482862,"perigee_km":461.864186475,"apogee_km":463.60997754073,"semimajor_km":6840.8740820079,"source":"CELESTRAK","updated_at":"2026-09-22T09:00:49.226037Z"}}}